[[{"header":{"parameterUnit":"m.s-1","parameterCategory":1,"la1":30.2992,"la2":30.254,"lo1":-89.0895,"lo2":-89.0443,"dy":0.0025,"dx":0.0025,"nx":19,"ny":19,"refTime":"2026-03-24T21:00:00:Z","depth":0,"parameterNumber":2,"parameterNumberName":"U-component_of_WINDS"},"data":[0,0,0,-2.8668,-2.867,-2.8753,-2.8753,-2.8858,-2.8859,0,0,0,0,0,0,0,0,0,0,0,-2.8643,-2.8644,-2.8668,-2.867,-2.8753,-2.8753,-2.8858,-2.8859,0,0,0,0,0,0,0,0,0,0,0,-2.8643,-2.8643,-2.8644,-2.867,-2.8753,-2.8753,-2.8858,-2.8795,0,0,0,0,0,0,0,0,0,0,-2.8715,-2.8691,-2.8643,-2.8644,-2.8671,-2.8753,-2.8753,-2.8792,-2.8799,-2.882,0,-2.8839,0,-2.8851,-2.8866,-2.8866,0,0,0,-2.867,-2.8685,-2.8709,-2.8644,-2.8672,-2.8752,-2.8715,-2.8796,-2.8804,-2.8829,-2.884,-2.8844,-2.8852,-2.8867,-2.8867,-2.8988,-2.8989,0,0,-2.8666,-2.8657,-2.8703,-2.8714,-2.8701,-2.8713,-2.8718,-2.8801,-2.8812,-2.884,-2.8847,-2.8854,-2.8867,-2.8868,-2.8988,-2.8988,0,0,0,-2.8652,-2.8654,-2.8675,-2.8709,-2.8724,-2.8715,-2.8721,-2.8808,-2.8816,-2.8848,-2.8855,-2.8868,-2.8869,-2.8987,-2.8988,-2.9006,0,0,0,-2.865,-2.8646,-2.8673,-2.8669,-2.8723,-2.8767,-2.8727,-2.881,-2.882,-2.8855,-2.8868,-2.887,-2.8986,-2.8987,-2.9005,-2.9016,0,0,0,-2.8638,-2.8645,-2.8657,-2.8668,-2.8703,-2.8766,-2.8779,-2.8813,-2.8825,-2.8866,-2.887,-2.8986,-2.8987,-2.9003,-2.9013,-2.9045,0,0,0,-2.8622,-2.8671,-2.8657,-2.8715,-2.8703,-2.8778,-2.8778,-2.8834,-2.8873,-2.8868,-2.8986,-2.8988,-2.9002,-2.9012,-2.9043,-2.9069,-2.9079,0,0,-2.8679,-2.8678,-2.8713,-2.8702,-2.8778,-2.8766,-2.8844,-2.8887,-2.8898,-2.8958,-2.8961,-2.9005,-2.9013,-2.9045,-2.9144,-2.9152,0,0,0,-2.8728,-2.8752,-2.8775,-2.8811,-2.8846,-2.8877,-2.8909,-2.8926,-2.8977,-2.8927,-2.9026,-2.9031,-2.905,-2.9063,-2.907,-2.9086,-2.8994,-2.8994,-2.8993,-2.8793,-2.8808,-2.8867,-2.8891,-2.8927,-2.8961,-2.8992,-2.902,-2.9022,-2.9045,-2.9062,-2.912,-2.9135,-2.914,-2.9157,-2.9078,-2.9078,-2.9079,-2.9079,-2.8877,-2.8914,-2.8919,-2.8978,-2.8993,-2.9043,-2.9079,-2.9079,-2.9128,-2.9108,-2.9126,-2.9101,-2.9149,-2.9165,-2.908,-2.908,-2.908,-2.908,-2.9079,-2.892,-2.894,-2.8961,-2.9017,-2.9059,-2.9083,-2.913,-2.9142,-2.9154,-2.9172,-2.9191,-2.919,-2.9191,-2.918,-2.9181,-2.9181,-2.9181,-2.9181,-2.9181,-2.8955,-2.8978,-2.9016,-2.906,-2.9086,-2.9123,-2.9161,-2.9187,-2.9219,-2.9225,-2.9225,-2.9225,-2.9152,-2.9132,-2.9184,-2.9184,-2.9184,-2.9183,-2.9183,-2.903,-2.9016,-2.9075,-2.9102,-2.9155,-2.9197,-2.9214,-2.9267,-2.9291,-2.9315,-2.9313,-2.9257,-2.9256,-2.9251,-2.9234,-2.931,-2.931,-2.931,-2.931,-2.9065,-2.9067,-2.9131,-2.9173,-2.9216,-2.9239,-2.9306,-2.9337,-2.9367,-2.9383,-2.9375,-2.9355,-2.9349,-2.9351,-2.9344,-2.9328,-2.9427,-2.9427,-2.9427,-2.9112,-2.9119,-2.9172,-2.9203,-2.9247,-2.9285,-2.9349,-2.9397,-2.9429,-2.9432,-2.9396,-2.9391,-2.9359,-2.9348,-2.9347,-2.9335,-2.9307,0,0]},{"header":{"parameterUnit":"m.s-1","parameterCategory":1,"la1":30.2992,"la2":30.254,"lo1":-89.0895,"lo2":-89.0443,"dy":0.0025,"dx":0.0025,"nx":19,"ny":19,"refTime":"2026-03-24T21:00:00:Z","depth":0,"parameterNumber":3,"parameterNumberName":"V-component_of_WINDS"},"data":[0,0,0,0.7589,0.7587,0.7517,0.7517,0.7431,0.743,0,0,0,0,0,0,0,0,0,0,0,0.7611,0.7611,0.7589,0.7587,0.7517,0.7517,0.7431,0.743,0,0,0,0,0,0,0,0,0,0,0,0.7612,0.7611,0.761,0.7587,0.7517,0.7517,0.7431,0.7483,0,0,0,0,0,0,0,0,0,0,0.755,0.7573,0.7611,0.761,0.7587,0.7517,0.7517,0.7485,0.7479,0.7464,0,0.745,0,0.7439,0.7424,0.7424,0,0,0,0.7586,0.7577,0.7557,0.761,0.7586,0.7517,0.7548,0.7482,0.7475,0.7456,0.7449,0.7446,0.7437,0.7424,0.7423,0.734,0.734,0,0,0.759,0.76,0.7561,0.7553,0.7564,0.7551,0.7546,0.7478,0.747,0.7449,0.7444,0.7436,0.7423,0.7423,0.734,0.734,0,0,0,0.7602,0.7602,0.7584,0.7557,0.7544,0.7549,0.7543,0.7473,0.7467,0.7443,0.7435,0.7423,0.7422,0.7341,0.734,0.7335,0,0,0,0.7604,0.7609,0.7585,0.7591,0.7545,0.7508,0.7541,0.7471,0.7463,0.7435,0.7423,0.7421,0.7341,0.734,0.7335,0.733,0,0,0,0.7615,0.7611,0.7601,0.7591,0.7561,0.7508,0.7498,0.7469,0.7459,0.7424,0.7421,0.7341,0.734,0.7336,0.7331,0.7312,0,0,0,0.763,0.7596,0.7601,0.756,0.7562,0.7506,0.7498,0.7455,0.7425,0.7422,0.7341,0.734,0.7336,0.7332,0.7313,0.7297,0.7292,0,0,0.7592,0.7592,0.7567,0.757,0.7515,0.7516,0.746,0.7422,0.7409,0.7364,0.7362,0.7335,0.7331,0.7312,0.7257,0.7253,0,0,0,0.7558,0.7541,0.7524,0.7496,0.7467,0.7443,0.7413,0.7399,0.7361,0.7388,0.7322,0.732,0.7308,0.73,0.7297,0.7287,0.7337,0.7337,0.7337,0.7518,0.7505,0.7464,0.7443,0.7416,0.7387,0.7365,0.7342,0.7335,0.732,0.7306,0.7275,0.7266,0.7263,0.7253,0.7297,0.7297,0.7297,0.7297,0.7462,0.7435,0.743,0.7388,0.7375,0.734,0.7312,0.7309,0.7274,0.7283,0.7272,0.7283,0.7259,0.7249,0.7296,0.7297,0.7297,0.7297,0.7297,0.7434,0.7419,0.7404,0.7364,0.7335,0.7316,0.7284,0.7273,0.7263,0.7252,0.7237,0.7237,0.7236,0.7246,0.7246,0.7246,0.7246,0.7245,0.7245,0.7411,0.7394,0.7369,0.7338,0.732,0.7295,0.7268,0.725,0.7227,0.7222,0.7222,0.7218,0.7259,0.727,0.7244,0.7244,0.7244,0.7244,0.7244,0.7358,0.7369,0.733,0.7312,0.7276,0.7249,0.7237,0.7202,0.7185,0.7171,0.717,0.7202,0.72,0.7203,0.7212,0.7172,0.7172,0.7172,0.7172,0.7335,0.7334,0.7292,0.7265,0.7237,0.7223,0.7181,0.716,0.714,0.713,0.7134,0.7145,0.7149,0.7145,0.7149,0.7157,0.7104,0.7104,0.7104,0.7302,0.7298,0.7264,0.7246,0.7217,0.7194,0.7154,0.7124,0.7104,0.7101,0.7122,0.7125,0.7142,0.7149,0.7145,0.7152,0.7166,0,0]}]]